EZY12VJ EGKK-LXGB

Flight info

Callsign EZY12VJ
Flight time N/A
Altitude 39000
Route NOVMA L620 SAM M195 MARUK N621 LELNA DCT NOVAN DCT DELOG DCT CRISA DCT VULPE DCT MAR N864 PIMOS
Aircraft A20N/M-SDE2E3FGHIRWXY/LB1

Departure

Time 2026-04-14 08:14
Airport London Gatwick Airport (EGKK)

Arrival

Time N/A
Airport Gibraltar Airport (LXGB)
Time Latitude Longitude Altitude Speed Heading
2026-04-14 07:50 51.15817 -0.17937 198 ft 0 kts 76°
2026-04-14 08:00 51.15816 -0.17945 198 ft 2 kts 76°
2026-04-14 08:00 51.15812 -0.17967 198 ft 2 kts 76°
2026-04-14 08:00 51.15809 -0.17991 198 ft 2 kts 76°
2026-04-14 08:00 51.15806 -0.18014 198 ft 2 kts 94°
2026-04-14 08:01 51.15809 -0.18037 198 ft 2 kts 112°
2026-04-14 08:01 51.15816 -0.18058 198 ft 2 kts 134°
2026-04-14 08:01 51.15828 -0.18072 198 ft 2 kts 154°
2026-04-14 08:01 51.15836 -0.18078 198 ft 1 kts 166°
2026-04-14 08:02 51.15843 -0.18080 198 ft 0 kts 168°
2026-04-14 08:04 51.15838 -0.18078 198 ft 1 kts 168°
2026-04-14 08:04 51.15821 -0.18072 198 ft 3 kts 168°
2026-04-14 08:05 51.15795 -0.18063 198 ft 4 kts 167°
2026-04-14 08:05 51.15758 -0.18050 198 ft 5 kts 167°
2026-04-14 08:05 51.15715 -0.18028 198 ft 7 kts 150°
2026-04-14 08:05 51.15701 -0.17952 198 ft 8 kts 79°
2026-04-14 08:06 51.15715 -0.17854 198 ft 9 kts 78°
2026-04-14 08:06 51.15730 -0.17742 198 ft 10 kts 76°
2026-04-14 08:06 51.15747 -0.17618 198 ft 12 kts 78°
2026-04-14 08:06 51.15740 -0.17517 198 ft 9 kts 142°
2026-04-14 08:07 51.15711 -0.17498 198 ft 0 kts 165°
2026-04-14 08:07 51.15705 -0.17495 198 ft 1 kts 165°
2026-04-14 08:07 51.15689 -0.17488 198 ft 3 kts 166°
2026-04-14 08:07 51.15663 -0.17480 198 ft 4 kts 168°
2026-04-14 08:08 51.15628 -0.17468 198 ft 5 kts 168°
2026-04-14 08:08 51.15587 -0.17454 198 ft 2 kts 166°
2026-04-14 08:08 51.15586 -0.17453 198 ft 0 kts 166°
2026-04-14 08:08 51.15585 -0.17453 198 ft 0 kts 166°
2026-04-14 08:09 51.15576 -0.17449 198 ft 2 kts 166°
2026-04-14 08:09 51.15540 -0.17436 198 ft 7 kts 167°
2026-04-14 08:09 51.15484 -0.17416 198 ft 8 kts 168°
2026-04-14 08:09 51.15420 -0.17395 198 ft 9 kts 168°
2026-04-14 08:10 51.15350 -0.17370 198 ft 10 kts 167°
2026-04-14 08:10 51.15274 -0.17340 198 ft 11 kts 155°
2026-04-14 08:10 51.15209 -0.17272 198 ft 11 kts 143°
2026-04-14 08:10 51.15193 -0.17165 198 ft 8 kts 76°
2026-04-14 08:11 51.15201 -0.17067 198 ft 9 kts 83°
2026-04-14 08:11 51.15215 -0.16958 198 ft 10 kts 77°
2026-04-14 08:11 51.15232 -0.16843 198 ft 4 kts 75°
2026-04-14 08:11 51.15231 -0.16828 198 ft 0 kts 136°
2026-04-14 08:12 51.15229 -0.16824 198 ft 2 kts 136°
2026-04-14 08:12 51.15190 -0.16795 198 ft 8 kts 169°
2026-04-14 08:13 51.15136 -0.16800 198 ft 10 kts 217°
2026-04-14 08:13 51.15109 -0.16900 198 ft 0 kts 257°
2026-04-14 08:13 51.15108 -0.16903 198 ft 2 kts 257°
2026-04-14 08:13 51.15075 -0.17131 198 ft 49 kts 258°
2026-04-14 08:14 51.14948 -0.18060 199 ft 118 kts 258°
2026-04-14 08:14 51.14735 -0.19626 293 ft 162 kts 257°
2026-04-14 08:14 51.14534 -0.21372 854 ft 166 kts 257°
2026-04-14 08:14 51.14326 -0.23247 1389 ft 179 kts 255°
2026-04-14 08:15 51.14088 -0.25196 2018 ft 188 kts 253°
2026-04-14 08:15 51.13770 -0.27295 2564 ft 203 kts 251°
2026-04-14 08:15 51.13393 -0.29545 3057 ft 224 kts 252°
2026-04-14 08:15 51.13018 -0.32045 3652 ft 241 kts 253°
2026-04-14 08:16 51.12635 -0.34694 4321 ft 255 kts 254°
2026-04-14 08:16 51.12202 -0.37472 5103 ft 264 kts 254°
2026-04-14 08:16 51.11802 -0.40304 6010 ft 268 kts 257°
2026-04-14 08:16 51.11285 -0.43123 7054 ft 265 kts 249°
2026-04-14 08:17 51.10597 -0.45776 8125 ft 261 kts 247°
2026-04-14 08:17 51.09856 -0.48360 8994 ft 264 kts 245°
2026-04-14 08:17 51.09018 -0.50985 9644 ft 274 kts 241°
2026-04-14 08:17 51.07800 -0.53323 10426 ft 281 kts 226°
2026-04-14 08:18 51.06317 -0.55449 10986 ft 295 kts 224°
2026-04-14 08:18 51.04726 -0.57662 11383 ft 313 kts 224°
2026-04-14 08:18 51.03082 -0.59984 11728 ft 330 kts 225°
2026-04-14 08:18 51.01333 -0.62504 12212 ft 343 kts 225°
2026-04-14 08:19 50.99578 -0.65055 12938 ft 347 kts 224°